Location: Riddle Hill
(39.7867°N, 89.7645°W)
Time: 01:40:19
(UTC+00:00)

NOAA 12 - Visible Passes

Search period start: 27 February 2021 00:00
Search period end: 09 March 2021 00:00
Orbit: 796 x 814 km, 98.5° (Epoch: 26 February)

Date Brightness Start Highest point End Pass type
(mag) Time Alt. Az. Time Alt. Az. Time Alt. Az.
27 Feb 7.5 00:53:37 10° WSW 00:56:13 14° W 00:58:50 10° WNW visible
27 Feb 6.4 11:26:57 10° NE 11:31:33 29° E 11:36:06 10° SSE visible
28 Feb 6.9 00:26:41 10° SSW 00:30:53 24° W 00:35:07 10° NW visible
28 Feb 7.2 11:02:52 10° NE 11:06:15 17° E 11:09:36 10° SE visible
02 Mar 5.3 11:51:06 10° NNE 11:56:16 49° E 12:01:23 10° S visible
03 Mar 7.5 00:53:06 10° WSW 00:55:44 14° W 00:58:23 10° WNW visible
03 Mar 6.4 11:26:29 10° NE 11:31:04 29° E 11:35:36 10° SSE visible
04 Mar 6.9 00:26:11 10° SSW 00:30:24 24° W 00:34:39 10° NW visible
04 Mar 7.2 11:02:25 10° NE 11:05:46 17° E 11:09:05 10° SE visible
06 Mar 5.3 11:50:38 10° NNE 11:55:47 48° E 12:00:54 10° S visible
07 Mar 7.5 00:52:34 10° WSW 00:55:14 14° W 00:57:56 10° WNW visible
07 Mar 6.4 11:26:01 10° NE 11:30:35 28° E 11:35:06 10° SSE visible
08 Mar 6.9 00:25:41 10° SSW 00:29:54 24° W 00:34:12 10° NW visible
08 Mar 7.2 11:01:57 10° NE 11:05:17 17° E 11:08:35 10° SE visible
